User: anonymous   Login
Location: Antioch Church
(34.9543°N, 88.5145°W)
Time: 13:51:08
(UTC+00:00)
Language:

Cosmos 2297 - Orbit

View from above orbital plane
View from above orbital plane
View from above satellite
View from above satellite

Ground track
Ground track

The orbit data is extracted from the following two-line orbital elements,

1 23404U 94077A   20056.37529164 -.00000255 +00000-0 -11034-3 0  9996
2 23404 071.0146 034.7972 0012744 095.9718 264.2857 14.13533431302965
Epoch (UTC): 25 February 2020 09:00:25
Eccentricity: 0.0012744
inclination: 71.0146°
perigee height: 838 km
apogee height: 856 km
right ascension of ascending node: 34.7972°
argument of perigee: 95.9718°
revolutions per day: 14.13533431
mean anomaly at epoch: 264.2857°
orbit number at epoch: 30296

The dashed part of the orbit path shows where the satellite is in the earth's shadow,  

DLR